Location: Pittsburgh
(40.4410°N, 79.9960°W)
Time: 23:31:02
(UTC-04:00)

BlueWalker 3 - Pass Details

Date: 13 March 2026
Orbit: 449 x 457 km, 53.2° (Epoch: 17 April)

Event Time Altitude Azimuth Distance (km) Brightness Sun altitude
Exits shadow 07:07:46 - 311° (NW) 2,431 5.0 -6.0°
Reaches altitude 10° 07:09:49 10° 315° (NW) 1,599 4.1 -5.6°
Maximum altitude 07:13:23 63° 37° (NE) 513 2.2 -4.9°
Drops below altitude 10° 07:16:56 10° 119° (ESE) 1,587 5.6 -4.2°
Sets 07:19:04 0° 123° (ESE) 2,455 6.5 -3.8°
